Wind_Speed
1 19 3 14 15 20 18 14 18 22 16 14 4 7 6 2 5 5 4 3 7 10 9 12 22 21 18 23 19 16 18 15 14 10 9 6 5 2 2 4 7 4 2 2
10 22 15 21 22 23 24 19 21 25 16 14 10 12 6 4 8 10 4 3 3 9 9 12 16 17 20 25 21 22 20 17 13 12 9 8 6 3 4 2 4 4 4 2
16 15 20 24 29 23 12 17 23 18 26 8 16 12 9 5 2 6 6 1 1 1 1 4 9 15 18 25 24 21 19 25 19 13 12 9 3 5 3 3 2 1 2 3
13 9 14 20 19 15 7 6 1 15 27 24 10 12 16 11 5 2 3 4 3 4 4 3 1 13 22 22 27 23 19 29 22 18 10 4 5 6 5 3 2 3 3 4
10 11 13 21 17 8 9 14 5 13 21 18 23 6 14 17 12 8 6 2 1 4 5 2 3 2 7 21 23 22 22 28 26 21 10 7 7 6 6 7 8 6 9 8
15 9 18 8 12 12 15 13 10 10 12 13 22 12 9 18 11 15 10 5 2 3 3 2 4 7 10 13 21 25 26 25 23 19 12 9 7 8 9 7 8 9 5 10
13 16 11 11 14 8 8 13 11 4 1 3 15 10 3 8 15 18 13 12 13 8 3 7 5 3 6 10 14 15 17 16 15 14 13 10 7 8 9 8 8 10 7 5
10 15 10 14 17 10 10 6 3 3 2 3 9 4 2 7 15 19 20 17 14 8 6 5 5 9 9 3 5 8 11 9 10 9 8 8 6 6 6 8 8 8 7 5
6 8 12 8 12 11 6 9 8 6 15 9 6 7 8 14 10 28 30 31 24 15 16 12 11 13 4 3 5 7 4 3 3 4 5 4 3 6 6 7 7 8 9 9
16 17 10 3 7 5 9 12 16 8 4 1 1 6 8 19 15 29 31 32 29 24 24 16 11 7 8 6 1 3 1 3 4 7 7 4 3 7 8 9 8 9 10 11
24 16 14 14 2 7 14 13 15 5 1 7 3 6 15 24 21 14 22 35 33 32 26 13 18 11 9 8 9 6 4 5 5 6 8 6 7 10 11 11 12 10 12 14
13 3 2 2 2 2 7 7 13 5 4 8 9 10 15 19 13 2 26 25 25 33 24 22 17 10 6 7 14 9 6 3 2 2 2 7 10 10 11 11 12 14 17 11
7 2 2 1 2 11 9 3 12 7 8 4 8 9 14 17 4 19 21 20 22 37 21 16 11 7 7 6 7 6 6 3 1 1 3 6 8 9 8 8 11 17 15 15
3 9 13 7 3 8 8 8 11 7 5 6 5 12 15 14 16 33 20 24 21 16 12 13 15 12 6 8 11 12 9 5 4 2 3 5 6 8 8 9 9 9 11 14
6 10 16 12 4 2 6 10 14 10 7 4 5 11 12 10 21 30 22 26 25 22 15 19 15 14 12 10 7 5 4 4 3 3 4 6 8 10 11 12 13 15 14 14
9 8 10 8 7 9 11 12 12 11 3 1 4 9 11 13 24 30 30 27 23 20 19 23 20 15 10 8 5 5 3 4 6 8 10 12 13 15 16 17 18 18 19 20
4 7 8 10 8 4 4 3 6 4 0 1 4 6 20 20 24 30 32 29 25 24 18 16 18 16 13 10 7 7 9 10 11 13 16 17 19 21 23 23 23 23 24 24
7 7 7 10 12 1 5 6 4 2 7 2 3 6 8 15 18 21 27 28 26 23 20 8 9 13 18 13 11 12 13 14 16 18 19 19 19 20 20 22 23 24 25 25
14 12 9 7 18 12 12 8 2 3 1 5 2 7 17 23 25 25 26 28 31 28 23 12 8 4 8 13 12 12 14 16 18 17 16 14 14 16 17 18 19 20 21 23
23 17 15 20 10 7 17 14 10 6 8 11 8 11 26 33 32 26 25 27 25 29 27 21 15 7 8 10 11 14 16 16 16 15 14 14 14 14 16 17 17 18 19 19
31 23 20 23 20 16 18 17 15 14 10 13 9 16 27 24 16 15 20 15 13 16 30 25 17 9 10 9 11 13 14 14 15 15 15 15 16 16 15 15 16 16 15 16
22 17 20 16 16 13 12 14 14 10 7 17 14 16 21 23 22 20 16 12 17 20 24 19 13 11 7 6 10 13 13 13 13 14 15 16 15 16 16 15 13 12 12 13
10 5 10 5 5 14 12 10 16 24 8 16 17 20 23 27 25 12 7 12 20 20 21 18 14 8 4 7 12 13 14 13 14 14 14 14 14 13 13 12 12 12 12 14
18 14 10 9 8 13 15 19 14 14 20 21 22 24 27 26 18 12 12 13 17 15 21 16 12 6 3 8 12 13 14 14 13 12 12 12 11 10 11 12 12 12 12 15
19 18 9 8 8 9 13 22 17 15 9 22 22 25 27 25 22 16 13 13 12 15 17 14 10 5 4 9 13 14 14 13 11 10 9 9 9 9 10 12 12 11 11 12
25 20 17 16 12 9 6 17 17 25 21 18 14 22 24 24 21 18 17 16 14 13 14 17 12 7 8 12 15 16 14 12 10 8 8 9 10 11 12 11 9 8 9 11
Wind_Direction
42 162 274 346 331 318 290 296 212 220 189 201 190 139 172 233 314 354 48 167 178 185 160 173 189 198 205 212 216 201 176 183 195 207 223 212 235 250 270 196 165 158 125 84
252 256 308 324 332 327 310 289 208 217 196 202 165 140 166 37 15 20 22 61 204 189 183 192 199 206 218 221 215 193 178 186 200 210 222 227 214 241 294 336 141 157 138 116
250 263 296 293 309 312 41 152 175 176 185 194 130 160 189 205 323 3 27 97 185 343 255 209 206 208 223 221 219 208 209 194 200 214 225 228 243 258 290 322 343 163 189 170
277 282 303 301 288 299 323 5 63 170 162 157 168 167 195 202 201 227 326 35 43 51 46 14 253 211 209 216 223 220 230 208 210 216 227 237 255 263 272 292 287 312 256 220
241 278 307 307 304 313 329 307 289 183 182 169 205 178 192 203 211 205 219 296 24 114 113 93 103 160 198 213 218 218 220 203 207 221 229 243 249 266 264 272 285 246 260 274
242 248 280 295 305 289 284 282 286 285 223 190 210 208 135 194 259 217 191 214 250 345 19 137 180 176 177 178 188 189 194 194 204 221 242 254 257 266 267 269 269 273 308 343
240 265 263 250 271 276 253 275 276 292 241 210 184 180 206 208 221 226 209 229 244 261 337 334 240 208 196 186 186 191 196 206 216 232 251 259 253 254 262 261 276 270 295 333
265 301 326 263 244 271 291 316 284 226 143 93 141 127 146 264 223 210 211 215 212 212 197 198 136 85 76 106 181 201 219 223 227 237 241 246 257 270 270 271 273 276 302 313
229 265 351 256 229 258 335 296 314 89 113 114 172 151 160 214 231 204 211 213 211 201 212 201 203 239 252 71 63 93 107 118 150 201 224 244 292 305 290 268 264 268 280 294
249 260 328 328 327 226 330 318 318 344 138 102 122 203 204 187 186 207 215 217 202 218 225 221 212 208 226 237 348 281 324 202 222 223 225 232 304 297 283 266 263 261 271 288
236 255 277 340 211 315 319 341 341 322 169 152 116 245 204 205 211 223 235 251 209 207 225 186 204 200 244 231 260 287 267 238 243 239 235 273 285 280 278 274 261 262 257 266
189 259 346 91 139 289 295 328 3 354 97 117 149 197 185 203 217 23 139 157 195 173 192 215 223 227 272 234 243 257 263 253 293 324 344 295 276 269 280 280 269 260 263 265
165 220 326 53 351 332 292 348 15 78 95 96 145 193 186 198 194 154 164 152 144 180 188 187 206 242 224 177 215 218 205 206 274 326 292 268 277 275 267 276 275 259 260 254
262 269 273 224 227 326 349 312 319 10 42 139 166 160 175 174 165 159 163 164 166 166 174 185 183 216 207 190 184 177 177 172 213 242 275 261 251 255 265 272 285 280 265 262
259 300 291 253 205 290 316 324 317 330 319 296 214 191 159 150 135 162 166 164 168 168 183 192 207 207 200 203 172 153 151 191 213 234 261 269 270 276 278 279 278 275 272 271
243 283 249 263 216 236 286 284 288 269 289 323 172 199 171 154 180 174 175 177 181 186 194 203 208 207 210 202 189 180 215 264 270 279 281 288 288 284 284 285 283 283 284 285
319 281 318 255 277 313 283 260 121 134 154 263 127 139 181 169 169 188 183 186 187 204 213 206 217 222 218 219 222 247 261 270 275 281 290 285 281 283 284 283 281 277 276 274
264 310 333 313 331 169 246 328 95 196 110 119 126 168 179 169 148 169 187 194 205 218 199 222 216 231 225 225 232 248 257 268 277 278 280 280 278 274 272 272 273 272 272 272
242 279 314 299 296 287 292 260 350 71 36 6 53 161 155 156 165 164 181 197 209 217 217 223 226 195 200 222 236 246 260 273 280 284 284 284 282 282 282 278 274 271 269 269
243 273 276 287 275 223 273 277 298 289 238 283 274 206 178 167 170 177 177 188 211 216 218 216 227 241 231 227 246 270 281 290 293 295 296 295 293 291 286 285 283 279 278 278
268 276 263 274 285 293 277 280 264 205 254 227 251 212 193 202 205 186 184 194 207 216 201 214 234 244 221 249 279 293 305 303 303 305 305 306 309 307 301 294 292 294 292 288
261 267 275 278 276 266 272 234 261 257 312 223 232 192 198 190 183 187 172 181 196 206 206 225 231 212 242 285 309 313 314 311 310 306 306 308 309 306 306 307 305 300 298 297
237 232 261 265 245 257 276 237 255 252 226 216 227 196 188 189 188 205 191 191 193 208 219 206 201 209 253 323 327 328 327 322 316 315 312 308 304 304 306 306 301 299 303 299
234 250 238 238 235 229 227 226 247 241 237 215 215 214 200 200 203 192 174 197 195 198 191 194 196 210 318 341 339 336 329 327 326 319 311 307 308 303 299 297 298 306 304 296
243 243 246 266 211 164 202 220 195 172 181 183 194 200 203 203 195 200 199 210 197 199 197 199 206 224 311 333 339 337 335 335 333 330 326 325 324 315 302 301 306 307 305 310
249 273 282 279 278 263 188 183 193 195 188 167 185 220 210 204 201 199 205 202 206 190 196 198 205 233 288 323 341 344 341 341 336 332 324 320 315 306 307 309 313 319 318 317
Height
3179 3172 3160 3163 3166 3166 3167 3169 3173 3171 3170 3172 3170 3170 3174 3176 3176 3176 3175 3173 3173 3175 3177 3179 3183 3186 3188 3191 3195 3199 3201 3203 3204 3206 3208 3209 3209 3209 3211 3211 3213 3214 3214 3215
3176 3167 3160 3163 3163 3164 3161 3162 3166 3171 3171 3173 3174 3174 3176 3177 3177 3176 3176 3175 3175 3175 3175 3178 3180 3183 3187 3190 3193 3196 3199 3203 3205 3208 3210 3210 3209 3209 3211 3211 3213 3214 3215 3215
3173 3164 3163 3162 3161 3165 3162 3160 3163 3165 3171 3175 3173 3178 3178 3177 3178 3178 3177 3177 3177 3176 3176 3177 3178 3181 3184 3187 3191 3194 3196 3201 3206 3208 3210 3209 3209 3211 3211 3212 3213 3215 3215 3215
3167 3166 3164 3162 3162 3165 3165 3165 3166 3166 3169 3171 3172 3176 3177 3175 3177 3178 3179 3180 3179 3178 3179 3179 3180 3181 3182 3185 3188 3193 3194 3198 3204 3208 3209 3209 3210 3212 3211 3211 3213 3212 3214 3214
3163 3161 3162 3160 3159 3162 3164 3163 3165 3164 3166 3168 3171 3170 3171 3174 3176 3177 3177 3178 3181 3180 3181 3181 3182 3183 3183 3185 3186 3190 3193 3196 3201 3205 3206 3208 3210 3210 3210 3210 3211 3210 3211 3213
3160 3160 3160 3159 3159 3161 3162 3162 3163 3164 3165 3166 3164 3167 3176 3176 3176 3175 3175 3177 3180 3181 3183 3184 3184 3185 3185 3186 3188 3189 3192 3195 3198 3202 3205 3206 3208 3209 3210 3210 3210 3209 3210 3210
3161 3158 3158 3158 3159 3159 3160 3161 3160 3162 3160 3162 3163 3166 3166 3171 3171 3175 3178 3180 3179 3180 3183 3186 3187 3187 3188 3189 3190 3191 3193 3196 3198 3201 3203 3205 3206 3208 3209 3211 3209 3208 3210 3209
3160 3156 3155 3156 3155 3156 3157 3157 3156 3159 3160 3162 3164 3167 3168 3167 3170 3174 3176 3177 3179 3179 3180 3182 3188 3190 3190 3191 3191 3192 3194 3195 3197 3199 3200 3202 3203 3205 3207 3208 3208 3207 3207 3207
3156 3155 3152 3152 3152 3155 3154 3154 3155 3155 3158 3162 3164 3167 3162 3163 3164 3168 3170 3172 3176 3177 3179 3181 3182 3185 3192 3192 3192 3193 3194 3195 3195 3197 3199 3200 3201 3203 3205 3206 3206 3205 3205 3205
3153 3155 3152 3152 3152 3154 3153 3154 3153 3153 3161 3163 3165 3164 3160 3161 3161 3165 3166 3168 3173 3177 3180 3181 3181 3181 3185 3189 3192 3191 3192 3194 3195 3195 3196 3196 3198 3201 3202 3203 3204 3204 3202 3201
3150 3154 3152 3151 3151 3151 3152 3152 3152 3151 3151 3156 3164 3162 3159 3159 3159 3163 3161 3157 3166 3177 3180 3180 3179 3178 3183 3184 3188 3189 3190 3192 3192 3193 3191 3192 3194 3197 3198 3199 3200 3201 3200 3199
3149 3148 3148 3150 3150 3150 3150 3151 3149 3148 3152 3150 3153 3157 3154 3156 3161 3158 3156 3157 3163 3174 3176 3176 3175 3177 3177 3181 3184 3186 3187 3188 3188 3188 3188 3190 3192 3193 3194 3195 3196 3196 3197 3195
3145 3147 3148 3150 3151 3150 3147 3149 3150 3150 3149 3149 3150 3153 3151 3154 3156 3159 3160 3159 3162 3172 3174 3174 3173 3172 3180 3180 3182 3184 3185 3186 3185 3185 3186 3188 3190 3190 3190 3191 3190 3191 3192 3192
3143 3145 3146 3147 3148 3149 3147 3148 3149 3148 3148 3147 3148 3146 3147 3149 3150 3153 3160 3160 3163 3167 3170 3171 3172 3176 3178 3180 3181 3183 3184 3183 3184 3185 3186 3187 3188 3188 3189 3188 3188 3187 3187 3187
3142 3143 3142 3142 3144 3144 3143 3144 3145 3144 3144 3144 3145 3146 3146 3145 3147 3152 3157 3160 3163 3166 3168 3172 3173 3175 3177 3180 3181 3182 3183 3184 3185 3186 3186 3186 3184 3184 3184 3184 3183 3183 3183 3182
3141 3140 3139 3139 3141 3140 3142 3142 3142 3142 3141 3141 3142 3144 3147 3147 3149 3151 3155 3158 3162 3165 3170 3172 3175 3176 3176 3179 3180 3182 3182 3184 3184 3184 3183 3181 3180 3180 3178 3177 3177 3177 3177 3176
3138 3139 3139 3138 3138 3137 3139 3139 3139 3140 3139 3139 3140 3142 3143 3145 3146 3149 3153 3158 3163 3167 3168 3172 3175 3177 3177 3178 3179 3180 3181 3182 3181 3180 3179 3177 3175 3174 3172 3171 3170 3170 3170 3170
3134 3136 3135 3136 3135 3137 3137 3135 3136 3137 3137 3137 3137 3139 3140 3144 3148 3151 3154 3158 3160 3163 3167 3173 3174 3176 3176 3177 3179 3180 3180 3179 3177 3176 3174 3173 3170 3169 3167 3166 3165 3164 3163 3162
3130 3130 3130 3133 3133 3135 3133 3133 3134 3135 3136 3135 3136 3138 3140 3144 3147 3149 3152 3157 3160 3163 3166 3171 3173 3173 3173 3174 3176 3177 3177 3176 3174 3171 3168 3166 3164 3162 3160 3159 3158 3157 3156 3155
3123 3125 3126 3129 3131 3130 3129 3130 3130 3130 3132 3133 3133 3135 3135 3139 3142 3144 3149 3153 3156 3160 3163 3166 3170 3171 3171 3172 3173 3174 3172 3169 3166 3164 3161 3159 3157 3156 3154 3153 3151 3150 3149 3148
3118 3119 3122 3124 3123 3123 3124 3126 3126 3127 3130 3126 3128 3129 3132 3135 3139 3141 3145 3148 3152 3155 3158 3163 3167 3168 3169 3170 3170 3168 3166 3163 3160 3157 3155 3153 3151 3149 3148 3147 3146 3145 3144 3142
3115 3117 3117 3117 3117 3119 3122 3121 3121 3121 3120 3121 3121 3124 3129 3134 3139 3143 3144 3146 3148 3151 3155 3161 3163 3165 3166 3167 3165 3163 3160 3158 3155 3152 3150 3148 3147 3144 3143 3143 3142 3141 3140 3139
3111 3111 3112 3112 3110 3112 3113 3114 3114 3116 3119 3120 3119 3120 3121 3127 3133 3137 3141 3145 3148 3153 3156 3158 3160 3162 3163 3162 3160 3157 3155 3152 3150 3148 3147 3145 3143 3141 3140 3139 3138 3137 3137 3135
3103 3104 3103 3104 3102 3102 3104 3106 3109 3111 3112 3113 3117 3117 3120 3124 3129 3133 3138 3143 3147 3150 3152 3154 3157 3158 3157 3157 3155 3152 3149 3147 3146 3144 3142 3141 3139 3139 3138 3137 3135 3134 3132 3130
3096 3097 3096 3095 3094 3095 3095 3098 3102 3105 3109 3107 3113 3114 3118 3122 3126 3131 3138 3141 3145 3147 3149 3151 3152 3153 3153 3153 3151 3148 3145 3143 3141 3139 3138 3137 3137 3137 3135 3134 3132 3131 3129 3128
3091 3091 3091 3090 3091 3089 3089 3090 3093 3098 3103 3105 3111 3113 3114 3116 3121 3126 3132 3136 3140 3143 3145 3147 3148 3149 3149 3149 3146 3144 3141 3139 3138 3137 3135 3135 3134 3133 3131 3130 3129 3127 3126 3125